www.pogodaiklimat.ru

Погода и климат >> Архив погоды >> Россия >> Магаданская область >> Совхоз Эльген


ПОГОДА в Совхозе Эльген

  • Прогноз погоды в Совхозе Эльген
  • Монитор погоды в Совхозе Эльген

АРХИВ ПОГОДЫ в Совхозе Эльген

Время (UTC), дата Ветер
(напр.,м/с)
 
Видим.   Явления Облачность Т
(С)
Тd
(С)
f
(%)
Тe
(С)
Тes
(С)
Комфортность P
(гПа)
Po
(гПа)
Тmin
(С)
Tmax
(С)
R
(мм)
R24
(мм)
S
(см)
12 13.05 СЗ 2 50 км 10/10 1000 м
[Cb cap]
+0.7 -5.9 61 -2 -2 1015.1 976.5
15 13.05 СЗ 3 50 км 10/10 1000 м
[Cb cap]
-1.1 -7.4 62 -6 -6 1016.6 977.7
18 13.05 С 2 50 км 10/8 1000 м
[Cb cap Ac trans]
-1.6 -7.5 64 -5 -5 1017.9 978.8
21 13.05 С 3 50 км 10/6 1000 м
[Cb cap Ac trans]
+0.2 -8.3 53 -4 -3 1018.8 980.0 -2.0
00 14.05 СЗ 3 50 км 8/4 1000 м
[Cu med, cong Ci fib]
+3.5 -8.4 41 +1 +5 1018.4 980.0
03 14.05 С 3 50 км 4/4 1000 м
[Cu med, cong]
+5.8 -8.7 34 +3 +9 1017.4 979.4
06 14.05 С 3
{10}
50 км 6/3 1000 м
[Cu Sc Ac trans Ci fib]
+5.1 -7.6 39 +2 +5 1018.3 980.2
09 14.05 С 2 50 км 8/8 1000 м
[Sc]
+3.8 -7.3 44 +2 +2 1019.5 981.0 +6.6
12 14.05 СВ 1 50 км 9/5 1000 м
[Sc Ac trans Ci fib]
+1.2 -6.8 55 0 0 1020.9 982.1
15 14.05 ЮВ 1 н/о н/о -3.8 -6.7 80 -6 -6 1022.4 982.8
18 14.05 ЮВ 1 50 км 3/0
[Ci fib]
-5.3 -6.9 88 -8 -7 1023.3 983.5
21 14.05 ЮВ 2 50 км ясно +1.7 -5.8 57 -1 +3 1022.0 983.2 -6.5
00 15.05 В 2 50 км ясно +6.7 -5.8 40 +5 +15 опасность
простуды
1020.0 982.0
03 15.05 СВ 2 50 км 3/3 1000 м
[Cu hum]
+10.6 -7.4 27 +10 +18 1017.2 979.8
06 15.05 ЮВ 2 50 км 3/3 1000 м
[Cu hum]
+12.9 -7.1 24 +13 +17 1015.2 978.1
09 15.05 В 2 50 км 8/0
[Ac trans Ci fib]
+11.3 -7.3 26 +11 +11 1014.9 977.6 +13.0
12 15.05 ЮВ 2 50 км 9/3 1000 м
[Sc Ac trans Ci fib]
+6.1 -6.4 40 +5 +5 1016.4 978.4
15 15.05 В 1 50 км 6/0
[Ac trans Ci fib]
-2.1 -3.9 87 -4 -4 1017.6 978.5
18 15.05 ЮВ 1 50 км 4/0
[Ac trans Ci fib]
-3.6 -6.2 82 -6 -6 1018.0 978.6
21 15.05 ЮВ 2 50 км 8/0
[Ac trans Ci fib]
+7.0 -4.8 43 +6 +8 1016.3 978.4 -3.9
00 16.05 ЮВ 3 50 км 9/0
[Ac trans Ci fib]
+14.2 -3.1 30 +14 +19 1013.7 976.9
03 16.05 Ю 3 50 км 8/4 1000 м
[Cu hum Ac trans Ci fib]
+17.4 -3.4 24 +17 +21 1011.7 975.4
06 16.05 ЮЗ 3 50 км 8/5 1000 м
[Cu Sc Ac trans Ci fib]
+16.9 -0.3 31 +17 +19 1011.2 974.8
09 16.05 Ю 2
{10}
50 км 6/0
[Ac trans Ci fib]
+13.2 -0.8 38 +13 +13 1012.2 975.3 +18.1
12 16.05 Ю 2 50 км 3/0
[Ci fib]
+5.2 -1.0 64 +3 +3 1013.5 975.5
15 16.05 ЮВ 2 50 км ясно +2.1 -1.3 78 -1 -1 1014.2 975.8
18 16.05 ЮВ 2 50 км ясно +3.7 -0.7 73 +1 +1 1013.9 975.7
21 16.05 ЮВ 2 50 км 3/0
[Ac trans]
+12.0 +0.7 46 +11 +15 1012.3 975.3 -0.3
00 17.05 Ю 4 50 км 3/0
[Ac trans]
+17.9 +1.3 33 +18 +23 1010.5 974.3
03 17.05 З 3
{10}
50 км 8/8 1000 м
[Cb cap]
+22.4 +2.3 27 +22 +24 комфорт 1008.3 972.7
06 17.05 З 3 50 км 8/8 1000 м
[Cb cap]
+22.1 +1.9 26 +22 +23 комфорт 1007.0 971.5
09 17.05 ЮЗ 3 50 км 6/4 1000 м
[Cb cap Ci fib]
+19.1 +0.7 29 +19 +20 1007.5 971.5 +23.0
12 17.05 Ю 2 50 км 4/3 1000 м
[Cb cap Ci fib]
+13.5 -1.1 36 +13 +13 1008.9 972.2
15 17.05 В 2 50 км 3/0
[Ci fib]
+5.6 -0.0 67 +3 +3 1010.8 973.0
18 17.05 С 1 50 км 9/8 1000 м
[Cb cap Ci fib]
+4.4 -0.4 71 +3 +3 1011.7 973.7
21 17.05 В 2 50 км 9/8 1000 м
[Cb cap Ac trans Ci fib]
+8.5 +0.5 57 +7 +8 1011.5 974.1 +3.3
00 18.05 СЗ 1 20 км слаб. ливневой дождь 10/10 1000 м
[Cb cap]
+7.2 +1.9 69 +7 +7 1012.7 975.0
03 18.05 СВ 3 50 км {ливн. осадки} 10/8 1000 м
[Cb cap Ac trans]
+9.6 +0.3 52 +8 +9 1012.8 975.5
06 18.05 В 4 50 км {ливн. осадки} 10/10 1000 м
[Cb cap]
+7.6 -1.6 52 +5 +5 1013.3 975.6
09 18.05 СВ 2 50 км 10/10 1000 м
[Cb cap]
+2.9 -2.4 68 0 0 1014.9 976.6 +10.6 0.3
12 18.05 СВ 2 50 км 10/10 1000 м
[Cb cap]
+0.6 -2.8 78 -3 -3 1015.6 976.9
15 18.05 З 1 50 км 10/10 1000 м
[Cb cap]
-0.6 -3.6 80 -3 -3 1015.3 976.5
18 18.05 СЗ 1 50 км 10/10 1000 м
[Cb cap]
-1.0 -5.2 73 -3 -3 1014.0 975.1
21 18.05 СЗ 1 50 км 10/10 1000 м
[Cb cap]
-0.9 -4.1 79 -3 -3 1012.5 973.7 -1.5
00 19.05 СЗ 1 10 км слаб. ливневой снег 10/10 600 м
[Cb cap]
+0.3 -3.3 77 -1 -1 1010.0 971.5 -1.5
03 19.05 С 2 50 км {ливн. осадки} 10/10 600 м
[Cb cap]
+2.0 -4.6 62 -1 -1 1006.4 968.3
06 19.05 СЗ 2 50 км {ливн. осадки} 10/10 600 м
[Cb cap]
+1.4 -4.3 66 -2 -2 1003.0 964.9
09 19.05 СЗ 3 10 км слаб. ливневой снег 10/10 600 м
[Cb cap]
-1.5 -3.4 87 -6 -6 1003.5 965.0 +2.4 1
12 19.05 СЗ 3
{10}
50 км в посл. час ливневой снег 10/10 600 м
[Cb cap]
-2.6 -4.8 85 -8 -8 1003.8 965.1
15 19.05 СЗ 4-10
{10}
10 км слаб. ливневой снег 10/10 600 м
[Cb cap]
-2.8 -7.1 72 -9 -9 1003.9 965.2
18 19.05 СЗ 3
{11}
50 км {ливн. осадки} 10/10 600 м
[Cb cap]
-3.8 -7.2 77 -9 -9 1004.9 966.0
21 19.05 СЗ 4 50 км 10/10 600 м
[Cb cap]
-3.7 -7.1 77 -10 -10 1006.9 967.9 -3.8 1
00 20.05 СЗ 2
{10}
10 км слаб. ливневой снег 10/10 600 м
[Cb cap]
-2.6 -6.4 75 -6 -6 1009.0 970.1 -4.2
03 20.05 СЗ 3 10 км слаб. ливневой снег 10/10 600 м
[Cb cap]
-2.0 -5.7 76 -7 -7 1010.9 972.0
06 20.05 СЗ 3 10 км слаб. ливневой снег 10/10 600 м
[Cb cap]
-1.5 -5.0 77 -6 -6 1013.1 974.2
09 20.05 СЗ 2 10 км слаб. ливневой снег 10/10 600 м
[Cb cap]
-2.3 -5.0 82 -6 -6 1016.2 977.1 -1.2 2

 

Местоположение метеостанции Совхоз Эльген (Магаданская область, Россия): широта 62.80 долгота 150.60 высота над уровнем моря 312 м.

В архиве по умолчанию представлена погода в Совхозе Эльген за последнюю неделю. Архивные данные за месяц целиком и за предыдущие месяцы, начиная с января 2011 года, Вы можете получить, выбрав интересующий диапазон дат из раскрывающегося списка и нажав кнопку "Ввод!".


*Определитесь, кто Вы:
робот инопланетянин человек

Внимание! Время в таблицах - всемирное. Для получения местного времени необходимо прибавить поправку, которая равна 11 ч.

Смотрите также архив погоды в соседних городах и на ближайших метеорологических станциях:

Погода в Ягодной (Магаданская область, Россия) (60 км)
Погода в Усть-Бохапче (Магаданская область, Россия) (78 км)
Погода в Сеймчане (Магаданская область, Россия) (92 км)
Погода в Среднекане (Магаданская область, Россия) (95 км)
Погода на Озере Джека Лондона (Магаданская область, Россия) (98 км)
Погода в Сусумане (Магаданская область, Россия) (127 км)
Погода в Колымской (Магаданская область, Россия) (188 км)
Погода в Усть-Омчуге (Магаданская область, Россия) (194 км)
Погода в Талой (Магаданская область, Россия) (206 км)
Погода в Балыгычане (Магаданская область, Россия) (214 км)

Пояснения к столбцам:

Ветер - указаны скорость ветра в м/с - средняя за 10 мин, порывы в срок и между сроками (в фигурных скобках) и направление, откуда дует ветер: С - северный, СВ - северо-восточный, В - восточный, ЮВ - юго-восточный, Ю - южный, ЮЗ - юго-западный, З - западный, СЗ - северо-западный.
Видимость - горизонтальная дальность видимости в метрах или километрах. При видимости от 1 до 10 км при отсутствии осадков обычно наблюдается дымка, при ухудшении видимости до 1 км и менее - туман. В сухую погоду видимость может ухудшаться дымом, пылью или мглою.
Явления - указаны атмосферные явления, наблюдавшиеся в срок или в последний час перед сроком; фигурными скобками обозначены явления, наблюдавшиеся между сроками (за 1-3 часа до срока); квадратными скобками обозначены град или гололедные отложения с указанием их диаметра в мм.
Облачность - указаны через наклонную черту общая и нижняя облачность в баллах и высота нижней границы облаков в метрах; квадратными скобками обозначены формы облаков: Ci - перистые, Cs - перисто-слоистые, Cc - перисто-кучевые, Ac - высококучевые, As - высокослоистые, Sc - слоисто-кучевые, Ns - слоисто-дождевые, Cu - кучевые, Cb - кучево-дождевые. Подробнее классификацию облаков см. в Атласе облаков (PDF).
T - Температура воздуха - температура, измеренная на высоте 2 м над землей.
Td - Температура точки росы - температура, при понижении до которой содержащийся в воздухе водяной пар достигнет насыщения.
f - Относительная влажность воздуха - влажноcть воздуха, измеренная на высоте 2 м над землей.
Te - Эффективная температура - температура, которую ощущает одетый по сезону человек в тени. Характеристика душности погоды. При расчете учитывается влияние влажности воздуха и скорости ветра на теплоощущения человека.
Tes - Эффективная температура на солнце - температура, которую ощущает человек, с поправкой на солнечный нагрев. Характеристика знойности погоды. Зависит от высоты солнца над горизонтом, облачности и скорости ветра. Ночью, в пасмурную погоду, а также при ветре 12 м/с и более поправка равна нулю.
P - Атмосферное давление - приведенное к уровню моря атмосферное давление.
Po - Атмосферное давление - измеренное на уровне метеостанции атмосферное давление.
Tmin - Минимальная температура - минимум температуры воздуха на высоте 2 м над землей.
Tmax - Максимальная температура - максимум температуры воздуха на высоте 2 м над землей.
R - Количество осадков - Количество выпавших осадков за период времени, мм. При наведении курсора мыши на число - период времени, за который выпало указанное количество осадков.
R24 - Количество осадков - Количество выпавших осадков за 24 часа, мм.
S - Снежный покров - Высота снежного покрова, см. При наведении курсора мыши на число - состояние снежного покрова и степень покрытия местности в баллах.